Hourly Weather Lugi

Today, 17 June, Thursday

Time Temperature Precipitation Wind Pressure Humidity
00:00 +16°C° 0 mm 2 mps 749 mmHg 88%
01:00 +15°C° 0 mm 2 mps 749 mmHg 88%
02:00 +15°C° 0 mm 2 mps 749 mmHg 88%
03:00 +15°C° 0 mm 1 mps 749 mmHg 88%
04:00 +15°C° 0 mm 1 mps 749 mmHg 87%
05:00 +17°C° 0 mm 2 mps 749 mmHg 82%
06:00 +18°C° 0 mm 2 mps 750 mmHg 76%
07:00 +20°C° 0 mm 3 mps 750 mmHg 71%
08:00 +21°C° 0 mm 3 mps 750 mmHg 65%
09:00 +22°C° 0 mm 3 mps 750 mmHg 59%
10:00 +25°C° 0 mm 3 mps 750 mmHg 53%
11:00 +25°C° 0 mm 3 mps 750 mmHg 49%
12:00 +26°C° 0 mm 3 mps 750 mmHg 46%
13:00 +27°C° 0 mm 3 mps 750 mmHg 42%
14:00 +26°C° 0 mm 3 mps 750 mmHg 44%
15:00 +26°C° 0 mm 3 mps 750 mmHg 45%
16:00 +26°C° 0 mm 4 mps 750 mmHg 46%
17:00 +25°C° 0 mm 3 mps 750 mmHg 54%
18:00 +22°C° 0 mm 3 mps 750 mmHg 63%
19:00 +21°C° 0 mm 2 mps 750 mmHg 71%
20:00 +19°C° 0 mm 2 mps 750 mmHg 72%
21:00 +18°C° 0 mm 2 mps 750 mmHg 74%
22:00 +17°C° 0 mm 2 mps 750 mmHg 76%
23:00 +17°C° 0 mm 2 mps 750 mmHg 79%

Tomorrow, 18 June, Friday

Time Temperature Precipitation Wind Pressure Humidity
00:00 +17°C° 0 mm 2 mps 750 mmHg 82%
01:00 +16°C° 0 mm 2 mps 750 mmHg 84%
02:00 +16°C° 0 mm 2 mps 750 mmHg 86%
03:00 +16°C° 0 mm 2 mps 750 mmHg 88%
04:00 +16°C° 0 mm 2 mps 750 mmHg 90%
05:00 +18°C° 0 mm 3 mps 750 mmHg 83%
06:00 +20°C° 0 mm 3 mps 750 mmHg 77%
07:00 +22°C° 0 mm 4 mps 750 mmHg 71%
08:00 +23°C° 0 mm 4 mps 750 mmHg 66%
09:00 +26°C° 0 mm 5 mps 750 mmHg 61%
10:00 +27°C° 0 mm 5 mps 750 mmHg 56%
11:00 +27°C° 0 mm 5 mps 750 mmHg 55%
12:00 +28°C° 0 mm 5 mps 750 mmHg 53%
13:00 +28°C° 0 mm 5 mps 749 mmHg 51%
14:00 +28°C° 0 mm 5 mps 749 mmHg 52%
15:00 +28°C° 0 mm 5 mps 749 mmHg 53%
16:00 +28°C° 0 mm 5 mps 749 mmHg 55%
17:00 +27°C° 0 mm 4 mps 749 mmHg 62%
18:00 +25°C° 0 mm 4 mps 749 mmHg 69%
19:00 +24°C° 0 mm 3 mps 749 mmHg 77%
20:00 +22°C° 0 mm 3 mps 749 mmHg 80%
21:00 +20°C° 0 mm 3 mps 749 mmHg 84%
22:00 +19°C° 0 mm 3 mps 749 mmHg 88%
23:00 +19°C° 0 mm 3 mps 749 mmHg 89%

Day after tomorrow, 19 June, Saturday

Time Temperature Precipitation Wind Pressure Humidity
00:00 +18°C° 0 mm 3 mps 749 mmHg 90%
01:00 +18°C° 0 mm 3 mps 748 mmHg 92%
02:00 +18°C° 0 mm 3 mps 748 mmHg 93%
03:00 +18°C° 0 mm 3 mps 748 mmHg 94%
04:00 +18°C° 0 mm 3 mps 748 mmHg 96%
05:00 +19°C° 0 mm 3 mps 748 mmHg 89%
06:00 +21°C° 0 mm 4 mps 749 mmHg 83%
07:00 +23°C° 0 mm 4 mps 749 mmHg 76%
08:00 +25°C° 0 mm 5 mps 749 mmHg 70%
09:00 +26°C° 0 mm 5 mps 749 mmHg 65%
10:00 +27°C° 0 mm 5 mps 749 mmHg 59%
11:00 +28°C° 0 mm 5 mps 748 mmHg 57%
12:00 +29°C° 0 mm 5 mps 748 mmHg 55%
13:00 +29°C° 0 mm 5 mps 748 mmHg 54%
14:00 +29°C° 0 mm 5 mps 748 mmHg 55%
15:00 +29°C° 0 mm 5 mps 747 mmHg 56%
16:00 +28°C° 0 mm 5 mps 747 mmHg 57%
17:00 +27°C° 0 mm 4 mps 747 mmHg 64%
18:00 +26°C° 0 mm 4 mps 747 mmHg 71%
19:00 +25°C° 0 mm 3 mps 747 mmHg 77%
20:00 +22°C° 0 mm 3 mps 747 mmHg 82%
21:00 +21°C° 0 mm 3 mps 747 mmHg 86%
22:00 +20°C° 0 mm 3 mps 747 mmHg 90%
23:00 +19°C° 0 mm 3 mps 747 mmHg 91%

20 June, Sunday

Time Temperature Precipitation Wind Pressure Humidity
00:00 +19°C° 0 mm 3 mps 747 mmHg 92%
01:00 +18°C° 0 mm 2 mps 747 mmHg 93%
02:00 +18°C° 0 mm 2 mps 747 mmHg 94%
03:00 +18°C° 0 mm 2 mps 747 mmHg 94%
04:00 +17°C° 0 mm 2 mps 747 mmHg 95%
05:00 +19°C° 0 mm 3 mps 747 mmHg 88%
06:00 +21°C° 0 mm 3 mps 747 mmHg 81%
07:00 +22°C° 0 mm 4 mps 747 mmHg 75%
08:00 +25°C° 0 mm 4 mps 747 mmHg 69%
09:00 +26°C° 0 mm 5 mps 746 mmHg 64%
10:00 +27°C° 0 mm 5 mps 746 mmHg 59%
11:00 +28°C° 0 mm 5 mps 746 mmHg 56%
12:00 +28°C° 0 mm 5 mps 746 mmHg 53%
13:00 +29°C° 0 mm 5 mps 745 mmHg 51%
14:00 +29°C° 0 mm 5 mps 745 mmHg 52%
15:00 +29°C° 0 mm 5 mps 745 mmHg 52%
16:00 +29°C° 0 mm 5 mps 744 mmHg 53%
17:00 +28°C° 0 mm 4 mps 744 mmHg 60%
18:00 +26°C° 0 mm 4 mps 744 mmHg 67%
19:00 +25°C° 0 mm 4 mps 744 mmHg 74%
20:00 +23°C° 0 mm 4 mps 744 mmHg 79%
21:00 +22°C° 0 mm 4 mps 744 mmHg 83%
22:00 +21°C° 0 mm 4 mps 744 mmHg 88%
23:00 +20°C° 0 mm 3 mps 744 mmHg 90%

21 June, Monday

Time Temperature Precipitation Wind Pressure Humidity
00:00 +20°C° 0 mm 3 mps 743 mmHg 92%
01:00 +19°C° 0 mm 3 mps 743 mmHg 95%
02:00 +19°C° 0 mm 3 mps 743 mmHg 95%
03:00 +19°C° 0 mm 3 mps 743 mmHg 94%
04:00 +18°C° 0 mm 3 mps 743 mmHg 94%
05:00 +20°C° 0 mm 4 mps 743 mmHg 87%
06:00 +22°C° 0 mm 4 mps 743 mmHg 79%
07:00 +23°C° 0 mm 5 mps 743 mmHg 72%
08:00 +25°C° 0 mm 5 mps 743 mmHg 66%
09:00 +26°C° 0 mm 5 mps 743 mmHg 61%
10:00 +28°C° 0 mm 5 mps 743 mmHg 56%
11:00 +28°C° 0 mm 5 mps 743 mmHg 57%
12:00 +28°C° 0 mm 5 mps 743 mmHg 57%
13:00 +28°C° 0 mm 5 mps 742 mmHg 57%
14:00 +28°C° 0 mm 5 mps 742 mmHg 58%
15:00 +28°C° 0 mm 5 mps 742 mmHg 59%
16:00 +28°C° 0 mm 4 mps 742 mmHg 60%
17:00 +27°C° 0 mm 4 mps 742 mmHg 66%
18:00 +26°C° 0 mm 4 mps 742 mmHg 71%
19:00 +25°C° 0 mm 4 mps 741 mmHg 77%
20:00 +24°C° 0 mm 3 mps 741 mmHg 81%
21:00 +21°C° 0 mm 3 mps 741 mmHg 85%
22:00 +20°C° 0 mm 3 mps 741 mmHg 90%
23:00 +20°C° 0 mm 3 mps 741 mmHg 91%

22 June, Tuesday

Time Temperature Precipitation Wind Pressure Humidity
00:00 +19°C° 0 mm 3 mps 741 mmHg 92%
01:00 +19°C° 0 mm 3 mps 740 mmHg 93%
02:00 +19°C° 0 mm 3 mps 740 mmHg 93%
03:00 +19°C° 0 mm 3 mps 740 mmHg 93%
04:00 +19°C° 0 mm 3 mps 740 mmHg 94%
05:00 +21°C° 0 mm 3 mps 740 mmHg 86%
06:00 +23°C° 0 mm 4 mps 740 mmHg 79%
07:00 +25°C° 0 mm 4 mps 740 mmHg 71%
08:00 +27°C° 0 mm 4 mps 741 mmHg 66%
09:00 +29°C° 0 mm 4 mps 741 mmHg 60%
10:00 +30°C° 0 mm 5 mps 741 mmHg 54%
11:00 +32°C° 0 mm 5 mps 741 mmHg 51%
12:00 +33°C° 0 mm 5 mps 741 mmHg 48%
13:00 +33°C° 0 mm 5 mps 741 mmHg 45%
14:00 +33°C° 0.1 mm 4 mps 741 mmHg 49%
15:00 +32°C° 0.1 mm 4 mps 741 mmHg 54%
16:00 +30°C° 0.1 mm 4 mps 742 mmHg 59%
17:00 +27°C° 2 mm 3 mps 742 mmHg 70%
18:00 +24°C° 2 mm 3 mps 742 mmHg 81%
19:00 +21°C° 2 mm 3 mps 742 mmHg 93%
20:00 +20°C° 0.8 mm 3 mps 743 mmHg 94%
21:00 +20°C° 0.8 mm 2 mps 743 mmHg 95%
22:00 +19°C° 0.8 mm 2 mps 743 mmHg 96%
23:00 +19°C° 0 mm 2 mps 743 mmHg 96%
Show more

We Need Your Consent

Meteoprog and our Service Providers may store and access personal data such as cookies, device identifiers or other similar technologies on your device and process such data to personalise content and ads, as well as provide social media features and to analyse the traffic.

  • Store and/or access information on your device

    Cookies, device identifiers or other information can be stored or accessed on your device for the purposes indicated above.

  • Personalised ads and content, ad and content measurement, audience insights, and products development

    Ads and content can be personalised based on a profile. More data can be added to better personalise ads and content. Ad and content performance can be measured. Insights about the audience who saw the ads and content can be derived. Such data can be used to develop or improve user’s experience, systems and software.

By clicking ‘I Agree’ you will allow the use of indicated cookies, device identifiers, web beacons or other similar technologies. Your settings can be changed in the browser on your device.

For certain purposes, legitimate interests may be relied on, rather than consent. You can read more about this in our Privacy and Cookie Policy.